Location: Czekanka
(50.4925°N, 19.2643°E)
Time: 12:43:03
(UTC+00:00)

SL-12 R/B(2) - Pass Details

Date: 15 June 2024
Orbit: 1193 x 2155 km, 63.4° (Epoch: 15 July)

Event Time Altitude Azimuth Distance (km) Brightness Sun altitude
Exits shadow 00:09:32 15° 223° (SW) 3,046 5.5 -13.8°
Maximum altitude 00:16:48 87° 314° (NW) 1,516 4.5 -13.4°
Drops below altitude 10° 00:26:57 10° 44° (NE) 4,081 7.9 -12.7°
Sets 00:30:25 0° 46° (NE) 5,207 8.7 -12.5°
